Regional Weather Roundup
Issued by NWS

Home | Current Version | Previous Version | Text Only | Print | Product List | Glossary Off
Versions: 1 2 3 4 5 6 7 8 9 10 11 12 13 14 15 16 17 18 19 20 21 22 23 24 25 26 27 28 29 30 31 32 33 34 35 36 37 38 39 40 41 42 43 44 45 46 47 48 49 50

000
ASUS45 KCYS 101210
RWRWY

WYOMING REGIONAL WEATHER ROUNDUP
NATIONAL WEATHER SERVICE CHEYENNE WY
500 AM MST SUN DEC 10 2017

NOTE:  "FAIR" INDICATES FEW OR NO CLOUDS BELOW 12,000 FEET
WITH NO SIGNIFICANT WEATHER AND/OR OBSTRUCTIONS TO VISIBILITY.

WYZ001-101300-
YELLOWSTONE NATIONAL PARK

CITY           SKY/WX    TMP DP  RH WIND       PRES   REMARKS
LK YELLOWSTONE   N/A      0  -3  87 CALM      30.60F
6HR MIN TEMP:   0; 6HR MAX TEMP:   5;

W YELLOWSTONE  NOT AVBL

$$
WYZ002>013-054>058-071-098>099-101300-
NORTHERN WYOMING

CITY           SKY/WX    TMP DP  RH WIND       PRES   REMARKS
JACKSON        MOCLDY     6   3  87 N6        30.64S WCI  -4
CODY           FAIR      26  13  57 CALM      30.40R
GREYBULL       FAIR       7   4  87 CALM      30.43F
6HR MIN TEMP:   7; 6HR MAX TEMP:  16;

WORLAND        FAIR      16  11  80 S7        30.42F WCI   6
6HR MIN TEMP:  11; 6HR MAX TEMP:  19;

SHERIDAN       FAIR      24  11  57 S3        30.31F
6HR MIN TEMP:  21; 6HR MAX TEMP:  34;

BUFFALO        FAIR      39  -2  17 W7        30.34S WCI  34
6HR MIN TEMP:  33; 6HR MAX TEMP:  43;

GILLETTE       FAIR      33  11  39 W15       30.31S WCI  23
6HR MIN TEMP:  31; 6HR MAX TEMP:  37;

HULETT         FAIR      34  12  40 S13       30.30S WCI  25
NEWCASTLE      FAIR      30   9  40 N14       30.32S WCI  20

$$
WYZ014>020-022>026-101>103-101300-
CENTRAL WYOMING

CITY           SKY/WX    TMP DP  RH WIND       PRES   REMARKS
BIG PINEY      FAIR      26   4  38 N16       30.50F WCI  14
6HR MIN TEMP:  19; 6HR MAX TEMP:  29;

PINEDALE       FAIR      23   1  39 NE8       30.50S WCI  14
DUBOIS         FAIR      37  -8  14 NW9G23    30.46R WCI  31
LANDER         FAIR      20  13  74 SE3       30.43S
6HR MIN TEMP:  19; 6HR MAX TEMP:  27;

RIVERTON       FAIR      13   9  84 N3        30.44F
6HR MIN TEMP:  13; 6HR MAX TEMP:  23;

CASPER         FAIR      31  14  49 SW20G26   30.40F WCI  19
6HR MIN TEMP:  29; 6HR MAX TEMP:  33;

DOUGLAS        FAIR      22  15  75 N9        30.39S WCI  12
6HR MIN TEMP:  20; 6HR MAX TEMP:  25;


$$
WYZ021-027>030-104>119-101300-
SOUTHERN WYOMING

CITY           SKY/WX    TMP DP  RH WIND       PRES   REMARKS
EVANSTON       FAIR      25   5  42 S7        30.57S WCI  17
6HR MIN TEMP:  20; 6HR MAX TEMP:  27;

FORT BRIDGER   FAIR      24   1  35 W12       30.58S WCI  13
ROCK SPRINGS   FAIR      26   5  40 SW14      30.51F WCI  14
6HR MIN TEMP:  23; 6HR MAX TEMP:  31;

DIXON          FAIR       8   3  78 CALM      30.58S
RAWLINS        FAIR      24   8  50 SW8       30.51R WCI  15
6HR MIN TEMP:  13; 6HR MAX TEMP:  27;

SARATOGA       FAIR      14   5  67 NW5       30.52R WCI   6
LARAMIE        FAIR      17   3  54 S9        30.44S WCI   6
6HR MIN TEMP:  15; 6HR MAX TEMP:  25;

CHEYENNE       FAIR      38   0  20 W14       30.37S WCI  30
6HR MIN TEMP:  35; 6HR MAX TEMP:  39;

TORRINGTON     FAIR      26  11  52 NW10      30.35F WCI  16
6HR MIN TEMP:  25; 6HR MAX TEMP:  35;

PINE BLUFFS    FAIR      27   1  33 MISG      30.38R

$$



USA.gov is the U.S. government's official web portal to all federal, state and local government web resources and services.